Regional Weather Roundup
Issued by NWS Jackson, KY

Home | Current Version | Previous Version | Text Only | Print | Product List | Glossary Off
Versions: 1 2 3 4 5 6 7 8 9 10 11 12 13 14 15 16 17 18 19 20 21 22 23 24 25 26 27 28 29 30 31 32 33 34 35 36 37 38 39 40 41 42 43 44 45 46 47 48 49 50

000
ASUS43 KJKL 290710
RWRJKL

EAST KENTUCKY HOURLY WEATHER ROUNDUP
NATIONAL WEATHER SERVICE JACKSON KY
300 AM EDT SAT APR 29 2017

NOTE: "FAIR" INDICATES FEW OR NO CLOUDS BELOW 12,000 FEET WITH
NO SIGNIFICANT WEATHER AND/OR OBSTRUCTIONS TO VISIBILITY.

* THESE REPORTS ARE NOT UNDER NWS QUALITY CONTROL AND MAY NOT
  REPORT WEATHER SUCH AS PRECIPITATION AND FOG.

KYZ079-080-083-085-087-088-110-112-115-119-120-290800
...EASTERN KENTUCKY...

CITY           SKY/WX    TMP DP  RH WIND       PRES   REMARKS
JACKSON        CLOUDY    74  63  68 VRB3      30.03R
LONDON         CLOUDY    68  62  81 CALM      30.02R
SOMERSET*      CLOUDY    73  63  68 S5        30.02S
MONTICELLO*    MOCLDY    74  66  76 SW8       30.02R
WILLIAMSBURG*  CLOUDY    75  64  69 S7        30.02R
MIDDLESBORO*   CLOUDY    75  64  67 CALM      30.05R
HARLAN APT*    CLOUDY    77  59  53 CALM      30.07R
PIKE CO APT*     N/A     73  64  72 S7        30.06R
BIG SANDY APT* CLOUDY    75  63  65 S5        30.04R
MOREHEAD APT*  CLOUDY    75  63  64 S12       30.00S
$$

KYZ035-036-041-042-044-050-067-078-099-290800
...CENTRAL KENTUCKY...

CITY           SKY/WX    TMP DP  RH WIND       PRES   REMARKS
MT STERLING*   CLOUDY    75  64  69 W14G21    30.01R
FLEMING/MASON* RAIN      64  61  89 W9        30.02R
DANVILLE*      CLOUDY    70  64  83 S5        30.01R
LEXINGTON      CLOUDY    70  59  68 NW13      30.01R
FRANKFORT      CLOUDY    65  61  87 CALM      29.97F
LOUISVILLE     TSTM      67  65  93 NW15G21   29.96R FOG
LEBANON*         N/A     75  64  69 S8        29.98R
GLASGOW*       CLOUDY    76  65  68 S7        29.96R
BOWLING GREEN  CLOUDY    75  68  78 S7        29.93S
$$

KYZ091>093-OHZ055-061-077-WVZ005-015-034-035-042-290800
...SOUTHERN OHIO/WEST VIRGINIA...

CITY           SKY/WX    TMP DP  RH WIND       PRES   REMARKS
COVINGTON      TSTM      66  65  96 S8        29.93S FOG
COLUMBUS       LGT RAIN  57  57 100 SE10      29.94F
DAYTON         TSTM      59  58  96 S5        29.93R FOG
WILMINGTON     LGT RAIN  60  60 100 CALM      29.95R
HUNTINGTON     CLOUDY    71  59  65 E6        30.00R
CHARLESTON     CLOUDY    71  56  58 NE7       30.04R
PINEVILLE*     CLOUDY    62  59  90 MISG      30.14R
BECKLEY        CLOUDY    67  57  70 S5        30.11S
BLUEFIELD      CLOUDY    67  55  65 SW7       30.14S
LOGAN CO APT*    N/A     73  61  64 S5        30.05R
$$

VAZ002-007-008-TNZ017-027-036-066-071-290800
...SOUTHWEST VIRGINIA/EAST TENNESSEE...

CITY           SKY/WX    TMP DP  RH WIND       PRES   REMARKS
WISE*          CLOUDY    70  57  64 S7        30.14R
JONESVILLE*      N/A     64  64 100 CALM      30.09
ABINGDON*      CLEAR     64  61  90 CALM      30.11S
BRISTOL        CLEAR     61  59  93 N3        30.07S
MORRISTOWN*    SUNNY     66  64  94 N3        30.04R
SEVIERVILLE*   SUNNY     63  63 100 CALM      30.01S
KNOXVILLE      CLEAR     71  62  73 W3        30.01R
LAFOLLETTE*    CLOUDY    75  64  69 S3G12     30.06R
OAK RIDGE      CLEAR     73  64  73 CALM      30.04R
CROSSVILLE     CLEAR     71  64  78 VRB7G18   30.06R
NASHVILLE      PTCLDY    77  67  71 S16       29.93R
$$

...KEY TO REMARKS...
VSB - VISIBILITY IN MILES
WCI - WIND CHILL INDEX
HX  - HEAT INDEX

$$



USA.gov is the U.S. government's official web portal to all federal, state and local government web resources and services.